Regional Weather Roundup
Issued by NWS Goodland, KS

Home | Current Version | Previous Version | Text Only | Print | Product List | Glossary On
Versions: 1 2 3 4 5 6 7 8 9 10 11 12 13 14 15 16 17 18 19 20 21 22 23 24 25 26 27 28 29 30 31 32 33 34 35 36 37 38 39 40 41 42 43 44 45 46 47 48 49 50
000
ASUS43 KGLD 271308
RWRGLD

GOODLAND FORECAST AREA HOURLY WEATHER ROUNDUP
NATIONAL WEATHER SERVICE GOODLAND KS
600 AM MST FRI FEB 27 2015

...OFFICIAL OBSERVATIONS...

CITY           SKY/WX    TMP DP  RH WIND       PRES   REMARKS
GOODLAND KS    LGT SNOW  10   7  87 SE13      30.27F FOG     WCI  -5
HILL CITY KS   CLOUDY     8   0  69 E6        30.47S
IMPERIAL NEB   PTCLDY     4  -3  73 SE10      30.32F WCI -11
MCCOOK NEB     CLOUDY     9  -1  64 SE8       30.42S
AKRON CO       LGT SNOW   7   5  91 SE15      30.12S FOG     WCI -10
BURLINGTON CO  LGT SNOW  10   6  84 SE18      30.20S FOG     WCI  -8
LIMON CO       LGT SNOW   7   4  87 SE17      30.06S FOG     WCI -12
$$

...UNOFFICIAL OBSERVATIONS...

CITY           SKY/WX    TMP DP  RH WIND       PRES   REMARKS
COLBY KS       LGT SNOW  10   9  92 SE10      30.35S WCI  -3
GOVE KS          N/A     10  32 100 MISG        N/A
LENORA KS        N/A      6  32 100 S9          N/A
NORTON KS      PTCLDY     5  -2  72 SE6       30.44F
SHARON SPRINGS   N/A     11   8  87 S13         N/A  WCI  -4
TRIBUNE KS     CLOUDY    14  12  92 SE15      30.29S WCI  -1
KIT CARSON CO    N/A     10   7  87 MISG        N/A
YUMA CO          N/A      9   4  81 SE14        N/A  WCI  -7
$$


USA.gov is the U.S. government's official web portal to all federal, state and local government web resources and services.